Regional Weather Roundup
Issued by NWS

Home | Current Version | Previous Version | Graphics & Text | Print | Product List | Glossary On
Versions: 1 2 3 4 5 6 7 8 9 10 11 12 13 14 15 16 17 18 19 20 21 22 23 24 25 26 27 28 29 30 31 32 33 34 35 36 37 38 39 40 41 42 43 44 45 46 47 48 49 50
000
ASUS45 KBOU 212207
RWRCO

WEATHER ROUNDUP FOR COLORADO
NATIONAL WEATHER SERVICE DENVER/BOULDER CO
300 PM MST SAT JAN 21 2017

NOTE: "FAIR" INDICATES FEW OR NO CLOUDS BELOW 12000 FEET WITH NO
SIGNIFICANT WEATHER AND/OR OBSTRUCTIONS TO VISIBILITY.

COZ001>005-013-030-031-212300-
...NORTHWEST COLORADO...

CITY           SKY/WX    TMP DP  RH WIND       PRES   REMARKS
CRAIG          LGT SNOW  28  24  85 SW7       29.48R VSB 3/4 WCI  21
HAYDEN         FAIR      27  19  74 W10       29.45R WCI  17
MEEKER         LGT SNOW  31  29  92 SW6       29.46R FOG     WCI  25
MOUNT WERNER   NOT AVBL
STEAMBOAT SPGS CLOUDY    29  20  69 CALM      29.44R
WALDEN           N/A     21  14  73 NE7       29.43R WCI  13
$$

COZ006>008-011-212300-
...WEST CENTRAL VALLEYS...

CITY           SKY/WX    TMP DP  RH WIND       PRES   REMARKS
GRAND JUNCTION MIX PCPN  35  35 100 N10       29.50R WCI  27
MONTROSE       CLOUDY    32  31  96 SE8       29.50R WCI  25
EAGLE          PTSUNNY   32  18  55 CALM      29.45R
RIFLE          LGT SNOW  34  30  85 W5        29.46R FOG     WCI  30
DELTA          FLURRIES  37  34  88 SW8       29.49R
NUCLA          CLOUDY    36  30  80 W13       29.54R
$$

COZ017>023-064>068-212300-
...SOUTHWEST COLORADO...

CITY           SKY/WX    TMP DP  RH WIND       PRES   REMARKS
DURANGO        LGT SNOW  29  26  89 W18       29.49R FOG     WCI  16
CORTEZ         CLOUDY    34  30  85 SW7       29.55R WCI  28
PAGOSA SPRINGS LGT SNOW  28  27  93 SW13G20   29.46R WCI  18
TELLURIDE      NOT AVBL
WOLF CREEK PAS CLOUDY    12  12 100 S16G24    29.45R WCI  -4
$$

COZ009-010-012-014-032>034-037-058>063-212300-
...CENTRAL COLORADO...

CITY           SKY/WX    TMP DP  RH WIND       PRES   REMARKS
ASPEN          CLOUDY    29  20  69 N8        29.41R HAZE    WCI  21
BUENA VISTA    PTSUNNY   27  19  72 SW3       29.38R
COPPER MTN     NOT AVBL
BERTHOUD PASS  NOT AVBL
COTTONWOOD PAS LGT SNOW  30  21  69 CALM      29.38R
GUNNISON       LGT SNOW  20  16  84 SE3       29.45R FOG
KREMMLING      PTSUNNY   25  14  63 CALM      29.47R
LEADVILLE      LGT SNOW  21  17  84 W8        29.38R VSB 3/4 WCI  11
MONARCH PASS   CLOUDY    16  12  86 NW3       29.49R
SALIDA         CLOUDY    35  27  73 NW10      29.46R WCI  27
SUNLIGHT       CLOUDY    19  18  93 MISG      29.46R
WILKERSON PASS FAIR      21  14  73 W3        29.41R
$$

COZ069>075-212300-
...SAN LUIS VALLEY/SANGRE DE CRISTO MOUNTAINS...

CITY           SKY/WX    TMP DP  RH WIND       PRES   REMARKS
ALAMOSA        PTSUNNY   30  21  69 CALM      29.38R
LA VETA PASS   FLURRIES  27  19  74 NE23G36   29.35R WCI  12
SAGUACHE       LGT SNOW  28  27  93 NW7       29.41R WCI  21
$$

COZ035-036-038>040-212300-
...NORTHERN COLORADO FRONT RANGE...

CITY           SKY/WX    TMP DP  RH WIND       PRES   REMARKS
DENVER INTL AP PTSUNNY   38  25  59 E7        29.39R
DMNS CITY PARK   N/A     39  23  52 NE5       29.41R
AURORA         PTSUNNY   40  26  58 NE7       29.39R
FRONT RANGE AP PTSUNNY   39  30  70 E6        29.39
ERIE MUNI ARPT FAIR      40  27  59 N3        29.40R
BOULDER MUN AP CLOUDY    39  23  52 N6        29.39R
CENTENNIAL     PTSUNNY   38  23  55 N9        29.38R
BROOMFIELD     PTSUNNY   39  27  60 N6        29.39R
FORT COLLINS   FAIR      43  25  49 NE8       29.41R
LONGMONT       PTSUNNY   46  27  49 NE6       29.42R
$$

COZ041-046-047-076>085-087-088-212300-
...PIKES PEAK/PALMER DIVIDE AND SOUTHERN FOOTHILLS...

CITY           SKY/WX    TMP DP  RH WIND       PRES   REMARKS
COLO. SPRINGS  PTSUNNY   38  24  57 SE7       29.37R
A. F. ACADEMY  FAIR      41  19  40 SE6       29.35R
SCHRIEVER AFB  NOT AVBL
ELLICOTT       PTSUNNY  N/A N/A N/A MISG      29.35R
FALCON         FAIR      37  23  55 SE5       29.38R
FORT CARSON    NOT AVBL
LIMON          FAIR      40  25  55 SE12      29.38R
MONUMENT HILL  CLOUDY    34  21  60 NE8       29.39R WCI  27
TRINIDAD       CLOUDY    35  25  66 N5        29.35R WCI  31
$$

COZ042>045-048>051-090-091-212300-
...NORTHEAST COLORADO...

CITY           SKY/WX    TMP DP  RH WIND       PRES   REMARKS
GREELEY ARPT   FAIR      41  28  60 E5        29.42
AKRON          FAIR      42  23  46 SE13      29.40R
BURLINGTON     FAIR      44  35  70 NE10      29.38R
WRAY           NOT AVBL
STERLING       FAIR      46  27  46 SE6       29.40R
HOLYOKE        FAIR      48  28  46 E3        29.43R
FORT MORGAN    FAIR      43  25  49 SE10      29.41R
$$

COZ086-089-092>099-212300-
...SOUTHEAST COLORADO...

CITY           SKY/WX    TMP DP  RH WIND       PRES   REMARKS
PUEBLO         PTSUNNY   39  31  72 E6        29.36R
LA JUNTA       CLOUDY    33  30  88 SW10      29.36R WCI  25
LAMAR          FAIR      37  30  75 W12       29.34R
SPRINGFIELD      N/A     35  28  75 NW18      29.32R WCI  24
$$



USA.gov is the U.S. government's official web portal to all federal, state and local government web resources and services.